ITY1711 LIRF-LICC

Flight info

Callsign ITY1711
Flight time 1h 2m
Altitude 39000
Route ROTUN DCT DORAS DCT BEKIV DCT ENEPA DCT LIBRO
Aircraft A20N/M-SDE2E3FGHIRWXY/LB1

Departure

Time 2026-05-05 07:11
Airport Rome–Fiumicino Leonardo da Vinci International Airport (LIRF)

Arrival

Time 2026-05-05 08:14
Airport Catania-Fontanarossa Airport (LICC)
Time Latitude Longitude Altitude Speed Heading
2026-05-05 06:37 41.79556 12.25744 20 ft 0 kts 116°
2026-05-05 07:01 41.79559 12.25736 20 ft 1 kts 137°
2026-05-05 07:02 41.79570 12.25724 20 ft 2 kts 133°
2026-05-05 07:02 41.79580 12.25710 20 ft 1 kts 135°
2026-05-05 07:02 41.79586 12.25702 20 ft 1 kts 112°
2026-05-05 07:02 41.79586 12.25687 19 ft 1 kts 54°
2026-05-05 07:03 41.79579 12.25680 20 ft 1 kts
2026-05-05 07:03 41.79573 12.25678 20 ft 1 kts 24°
2026-05-05 07:03 41.79572 12.25678 20 ft 0 kts 24°
2026-05-05 07:05 41.79575 12.25680 20 ft 1 kts 24°
2026-05-05 07:06 41.79598 12.25694 20 ft 5 kts 24°
2026-05-05 07:06 41.79641 12.25719 19 ft 9 kts 24°
2026-05-05 07:06 41.79730 12.25777 19 ft 18 kts 24°
2026-05-05 07:06 41.79853 12.25827 18 ft 18 kts 356°
2026-05-05 07:07 41.79970 12.25882 18 ft 18 kts 25°
2026-05-05 07:07 41.80087 12.25954 17 ft 18 kts 24°
2026-05-05 07:07 41.80208 12.26029 16 ft 19 kts 25°
2026-05-05 07:07 41.80335 12.26108 15 ft 20 kts 24°
2026-05-05 07:08 41.80466 12.26176 15 ft 20 kts 17°
2026-05-05 07:08 41.80581 12.26201 15 ft 14 kts 355°
2026-05-05 07:08 41.80630 12.26197 15 ft 0 kts 353°
2026-05-05 07:09 41.80632 12.26197 15 ft 0 kts 353°
2026-05-05 07:09 41.80660 12.26190 15 ft 8 kts 345°
2026-05-05 07:09 41.80720 12.26132 15 ft 12 kts 295°
2026-05-05 07:09 41.80711 12.26035 15 ft 2 kts 249°
2026-05-05 07:10 41.80710 12.26034 15 ft 0 kts 249°
2026-05-05 07:10 41.80691 12.25965 15 ft 36 kts 249°
2026-05-05 07:10 41.80507 12.25304 14 ft 111 kts 249°
2026-05-05 07:10 41.80161 12.24077 98 ft 160 kts 247°
2026-05-05 07:11 41.79745 12.22645 605 ft 171 kts 250°
2026-05-05 07:11 41.79544 12.20997 1086 ft 191 kts 263°
2026-05-05 07:11 41.79471 12.19140 1655 ft 207 kts 264°
2026-05-05 07:11 41.79423 12.17168 2303 ft 215 kts 262°
2026-05-05 07:12 41.79220 12.15179 2879 ft 224 kts 249°
2026-05-05 07:12 41.78484 12.13329 3586 ft 228 kts 226°
2026-05-05 07:12 41.77383 12.11871 4525 ft 226 kts 224°
2026-05-05 07:12 41.76236 12.10473 5507 ft 224 kts 219°
2026-05-05 07:13 41.74987 12.09226 6353 ft 227 kts 219°
2026-05-05 07:13 41.73709 12.08009 7177 ft 230 kts 218°
2026-05-05 07:13 41.72405 12.06747 7985 ft 233 kts 220°
2026-05-05 07:13 41.71084 12.05487 8697 ft 242 kts 213°
2026-05-05 07:14 41.69459 12.04673 9314 ft 258 kts 196°
2026-05-05 07:14 41.67650 12.04403 9887 ft 274 kts 185°
2026-05-05 07:14 41.65685 12.04515 10465 ft 289 kts 178°
2026-05-05 07:14 41.63693 12.04864 11236 ft 293 kts 178°
2026-05-05 07:15 41.61602 12.04817 11576 ft 306 kts 196°
2026-05-05 07:15 41.59631 12.03727 11814 ft 320 kts 216°
2026-05-05 07:15 41.57711 12.02010 12083 ft 340 kts 210°
2026-05-05 07:15 41.55447 12.01083 12877 ft 348 kts 189°
2026-05-05 07:16 41.52992 12.01103 13542 ft 358 kts 180°
2026-05-05 07:16 41.50497 12.01355 14177 ft 364 kts 180°
2026-05-05 07:16 41.47967 12.01548 14863 ft 367 kts 181°
2026-05-05 07:16 41.45393 12.01656 15547 ft 369 kts 182°
2026-05-05 07:17 41.42838 12.01701 16204 ft 372 kts 183°
2026-05-05 07:17 41.40247 12.01712 16859 ft 375 kts 183°
2026-05-05 07:17 41.37633 12.01703 17479 ft 378 kts 184°
2026-05-05 07:17 41.34979 12.01689 18090 ft 381 kts 184°
2026-05-05 07:18 41.32319 12.01703 18701 ft 385 kts 181°
2026-05-05 07:18 41.29683 12.02416 19255 ft 397 kts 163°
2026-05-05 07:18 41.27263 12.04213 19835 ft 408 kts 146°
2026-05-05 07:18 41.25174 12.06777 20409 ft 415 kts 139°
2026-05-05 07:19 41.23130 12.09497 20890 ft 420 kts 139°
2026-05-05 07:19 41.21045 12.12266 21382 ft 425 kts 140°
2026-05-05 07:19 41.18925 12.15039 21855 ft 429 kts 141°
2026-05-05 07:19 41.16659 12.17550 22317 ft 428 kts 150°
2026-05-05 07:20 41.14093 12.19513 22819 ft 424 kts 161°
2026-05-05 07:20 41.11362 12.20891 23325 ft 421 kts 167°
2026-05-05 07:20 41.08572 12.22065 23815 ft 424 kts 168°
2026-05-05 07:20 41.05773 12.23211 24292 ft 427 kts 168°
2026-05-05 07:21 41.02905 12.24394 24811 ft 430 kts 168°
2026-05-05 07:21 41.00066 12.25582 25306 ft 432 kts 168°
2026-05-05 07:21 40.97192 12.26793 25770 ft 435 kts 168°
2026-05-05 07:21 40.94306 12.28009 26211 ft 438 kts 168°
2026-05-05 07:22 40.91398 12.29232 26637 ft 441 kts 168°
2026-05-05 07:22 40.88485 12.30568 27004 ft 448 kts 165°
2026-05-05 07:22 40.85591 12.32131 27435 ft 452 kts 162°
2026-05-05 07:22 40.82690 12.33853 27809 ft 456 kts 161°
2026-05-05 07:23 40.79812 12.35567 28152 ft 459 kts 161°
2026-05-05 07:23 40.76902 12.37306 28485 ft 461 kts 161°
2026-05-05 07:23 40.73970 12.39056 28812 ft 464 kts 161°
2026-05-05 07:23 40.71060 12.40793 29146 ft 465 kts 161°
2026-05-05 07:24 40.68117 12.42549 29505 ft 466 kts 161°
2026-05-05 07:24 40.65136 12.44326 29965 ft 464 kts 161°
2026-05-05 07:24 40.62224 12.46060 30425 ft 462 kts 161°
2026-05-05 07:24 40.59318 12.47789 30833 ft 461 kts 161°
2026-05-05 07:25 40.56415 12.49512 31188 ft 460 kts 161°
2026-05-05 07:25 40.53476 12.51255 31570 ft 460 kts 161°
2026-05-05 07:25 40.50583 12.52969 31935 ft 459 kts 161°
2026-05-05 07:25 40.47652 12.54704 32254 ft 459 kts 161°
2026-05-05 07:26 40.44770 12.56407 32570 ft 460 kts 161°
2026-05-05 07:26 40.41872 12.58119 32870 ft 460 kts 161°
2026-05-05 07:26 40.38951 12.59846 33191 ft 460 kts 161°
2026-05-05 07:26 40.36006 12.61584 33491 ft 460 kts 161°
2026-05-05 07:27 40.33114 12.63287 33719 ft 462 kts 161°
2026-05-05 07:27 40.30177 12.65014 33921 ft 464 kts 162°
2026-05-05 07:27 40.27204 12.66772 34131 ft 465 kts 162°
2026-05-05 07:27 40.24273 12.68512 34326 ft 466 kts 162°
2026-05-05 07:28 40.21308 12.70266 34541 ft 467 kts 162°
2026-05-05 07:28 40.18343 12.72012 34737 ft 467 kts 162°
2026-05-05 07:28 40.15378 12.73751 34927 ft 468 kts 161°
2026-05-05 07:28 40.12435 12.75477 35045 ft 470 kts 161°
2026-05-05 07:29 40.09407 12.77247 35049 ft 474 kts 161°
2026-05-05 07:29 40.03377 12.80768 35053 ft 481 kts 161°
2026-05-05 07:30 39.97261 12.84337 35054 ft 481 kts 161°
2026-05-05 07:30 39.88104 12.89664 35054 ft 482 kts 161°
2026-05-05 07:31 39.81974 12.93210 35054 ft 482 kts 161°
2026-05-05 07:31 39.75883 12.96736 35052 ft 483 kts 161°
2026-05-05 07:32 39.69731 13.00296 35050 ft 482 kts 161°
2026-05-05 07:32 39.63631 13.03816 35055 ft 483 kts 161°
2026-05-05 07:33 39.57369 13.06858 35057 ft 479 kts 168°
2026-05-05 07:33 39.51004 13.09178 35058 ft 477 kts 169°
2026-05-05 07:34 39.44625 13.11465 35052 ft 477 kts 169°
2026-05-05 07:34 39.38196 13.13774 35058 ft 477 kts 169°
2026-05-05 07:35 39.31832 13.16062 35050 ft 477 kts 169°
2026-05-05 07:35 39.25446 13.18352 35053 ft 477 kts 169°
2026-05-05 07:36 39.19014 13.20656 35053 ft 478 kts 169°
2026-05-05 07:36 39.12618 13.22944 35051 ft 478 kts 169°
2026-05-05 07:37 39.06235 13.25222 35056 ft 478 kts 169°
2026-05-05 07:37 38.99824 13.27506 35050 ft 479 kts 168°
2026-05-05 07:38 38.93379 13.29798 35054 ft 479 kts 168°
2026-05-05 07:38 38.86983 13.32066 35053 ft 478 kts 168°
2026-05-05 07:39 38.80539 13.34343 34855 ft 476 kts 168°
2026-05-05 07:39 38.77377 13.35463 34453 ft 468 kts 169°
2026-05-05 07:39 38.74267 13.36563 33869 ft 464 kts 169°
2026-05-05 07:40 38.71198 13.37646 33209 ft 463 kts 168°
2026-05-05 07:40 38.68099 13.38736 32506 ft 462 kts 168°
2026-05-05 07:40 38.65005 13.39824 31769 ft 463 kts 168°
2026-05-05 07:40 38.61882 13.40922 31008 ft 463 kts 168°
2026-05-05 07:41 38.58797 13.42008 30253 ft 464 kts 168°
2026-05-05 07:41 38.55697 13.43098 29520 ft 464 kts 168°
2026-05-05 07:41 38.52560 13.44199 28740 ft 465 kts 168°
2026-05-05 07:41 38.49426 13.45297 27984 ft 465 kts 168°
2026-05-05 07:42 38.46337 13.46381 27540 ft 461 kts 168°
2026-05-05 07:42 38.43274 13.47455 27071 ft 457 kts 168°
2026-05-05 07:42 38.40217 13.48527 26591 ft 453 kts 168°
2026-05-05 07:42 38.37220 13.49577 26104 ft 450 kts 168°
2026-05-05 07:43 38.34201 13.50633 25614 ft 446 kts 168°
2026-05-05 07:43 38.31236 13.51669 25120 ft 442 kts 167°
2026-05-05 07:43 38.28299 13.52693 24639 ft 437 kts 167°
2026-05-05 07:43 38.25355 13.53721 24149 ft 433 kts 167°
2026-05-05 07:44 38.22482 13.54724 23670 ft 429 kts 167°
2026-05-05 07:44 38.19612 13.55723 23181 ft 425 kts 167°
2026-05-05 07:44 38.16786 13.56708 22697 ft 422 kts 167°
2026-05-05 07:44 38.13967 13.57686 22209 ft 418 kts 167°
2026-05-05 07:45 38.11167 13.58661 21707 ft 415 kts 167°
2026-05-05 07:45 38.08397 13.59623 21209 ft 412 kts 167°
2026-05-05 07:45 38.05636 13.60583 20698 ft 409 kts 167°
2026-05-05 07:45 38.02908 13.61531 20200 ft 407 kts 167°
2026-05-05 07:46 38.00204 13.62472 19690 ft 405 kts 167°
2026-05-05 07:46 37.97497 13.63411 19195 ft 402 kts 167°
2026-05-05 07:46 37.94785 13.64350 18685 ft 401 kts 167°
2026-05-05 07:46 37.92097 13.65278 18217 ft 400 kts 167°
2026-05-05 07:47 37.89478 13.66538 17672 ft 403 kts 151°
2026-05-05 07:47 37.87362 13.68817 17183 ft 404 kts 130°
2026-05-05 07:47 37.85973 13.71880 16699 ft 403 kts 112°
2026-05-05 07:47 37.84966 13.75169 16213 ft 401 kts 111°
2026-05-05 07:48 37.83986 13.78462 15732 ft 398 kts 111°
2026-05-05 07:48 37.83013 13.81683 15259 ft 396 kts 111°
2026-05-05 07:48 37.82014 13.84936 14766 ft 394 kts 112°
2026-05-05 07:48 37.81021 13.88128 14279 ft 391 kts 112°
2026-05-05 07:49 37.80024 13.91311 13879 ft 387 kts 112°
2026-05-05 07:49 37.79036 13.94449 13633 ft 386 kts 112°
2026-05-05 07:49 37.78047 13.97582 13389 ft 384 kts 112°
2026-05-05 07:49 37.77050 14.00728 13153 ft 382 kts 112°
2026-05-05 07:50 37.76055 14.03793 12915 ft 381 kts 112°
2026-05-05 07:50 37.75043 14.06891 12664 ft 379 kts 112°
2026-05-05 07:50 37.74046 14.09943 12422 ft 377 kts 112°
2026-05-05 07:50 37.73054 14.12983 12181 ft 375 kts 112°
2026-05-05 07:51 37.72055 14.16050 11936 ft 373 kts 112°
2026-05-05 07:51 37.71077 14.19055 11693 ft 371 kts 112°
2026-05-05 07:51 37.70105 14.22037 11450 ft 370 kts 112°
2026-05-05 07:51 37.69118 14.25065 11203 ft 369 kts 112°
2026-05-05 07:52 37.68156 14.28014 10961 ft 367 kts 112°
2026-05-05 07:52 37.67194 14.30964 10766 ft 358 kts 112°
2026-05-05 07:52 37.66256 14.33832 10561 ft 348 kts 112°
2026-05-05 07:52 37.65345 14.36615 10241 ft 341 kts 111°
2026-05-05 07:53 37.64445 14.39358 9991 ft 332 kts 111°
2026-05-05 07:53 37.63576 14.41995 9849 ft 320 kts 113°
2026-05-05 07:53 37.62484 14.44358 9639 ft 311 kts 128°
2026-05-05 07:53 37.60953 14.46239 9446 ft 301 kts 144°
2026-05-05 07:54 37.59158 14.47523 9315 ft 295 kts 159°
2026-05-05 07:54 37.57226 14.48308 9196 ft 294 kts 165°
2026-05-05 07:54 37.55251 14.48981 9070 ft 294 kts 166°
2026-05-05 07:54 37.53260 14.49652 8955 ft 294 kts 165°
2026-05-05 07:55 37.51297 14.50326 8834 ft 294 kts 165°
2026-05-05 07:55 37.49332 14.51012 8705 ft 293 kts 165°
2026-05-05 07:55 37.47372 14.51704 8589 ft 293 kts 165°
2026-05-05 07:55 37.45403 14.52403 8460 ft 292 kts 165°
2026-05-05 07:56 37.43441 14.53101 8334 ft 291 kts 165°
2026-05-05 07:56 37.41490 14.53795 8220 ft 290 kts 165°
2026-05-05 07:56 37.39565 14.54479 8105 ft 290 kts 165°
2026-05-05 07:56 37.37626 14.55166 7990 ft 288 kts 164°
2026-05-05 07:57 37.35675 14.55860 7864 ft 288 kts 163°
2026-05-05 07:57 37.33850 14.56845 7743 ft 288 kts 148°
2026-05-05 07:57 37.32306 14.58427 7618 ft 287 kts 131°
2026-05-05 07:57 37.31163 14.60473 7494 ft 286 kts 115°
2026-05-05 07:58 37.30500 14.62824 7368 ft 284 kts 99°
2026-05-05 07:58 37.30356 14.65257 7247 ft 281 kts 85°
2026-05-05 07:58 37.30639 14.67689 7128 ft 280 kts 78°
2026-05-05 07:58 37.31015 14.70067 7008 ft 279 kts 77°
2026-05-05 07:59 37.31396 14.72464 6878 ft 279 kts 78°
2026-05-05 07:59 37.31764 14.74860 6763 ft 278 kts 78°
2026-05-05 07:59 37.32114 14.77222 6640 ft 278 kts 78°
2026-05-05 07:59 37.32463 14.79624 6524 ft 276 kts 79°
2026-05-05 08:00 37.32798 14.81946 6304 ft 269 kts 79°
2026-05-05 08:00 37.33125 14.84226 6102 ft 262 kts 79°
2026-05-05 08:00 37.33445 14.86465 5914 ft 254 kts 78°
2026-05-05 08:00 37.33751 14.88613 5791 ft 252 kts 78°
2026-05-05 08:01 37.34063 14.90794 5666 ft 251 kts 78°
2026-05-05 08:01 37.34372 14.92955 5543 ft 251 kts 78°
2026-05-05 08:01 37.34680 14.95112 5419 ft 251 kts 78°
2026-05-05 08:01 37.34985 14.97254 5297 ft 250 kts 78°
2026-05-05 08:02 37.35291 14.99401 5174 ft 250 kts 78°
2026-05-05 08:02 37.35597 15.01549 5049 ft 249 kts 78°
2026-05-05 08:02 37.35902 15.03690 4926 ft 249 kts 79°
2026-05-05 08:02 37.36204 15.05833 4802 ft 249 kts 79°
2026-05-05 08:03 37.36504 15.07963 4679 ft 248 kts 79°
2026-05-05 08:03 37.36805 15.10098 4555 ft 248 kts 79°
2026-05-05 08:03 37.37107 15.12243 4431 ft 248 kts 79°
2026-05-05 08:03 37.37406 15.14358 4309 ft 247 kts 79°
2026-05-05 08:04 37.37705 15.16493 4186 ft 247 kts 79°
2026-05-05 08:04 37.38002 15.18605 4063 ft 246 kts 79°
2026-05-05 08:04 37.38438 15.20668 3923 ft 244 kts 60°
2026-05-05 08:04 37.39444 15.22360 3806 ft 242 kts 46°
2026-05-05 08:05 37.40623 15.23920 3668 ft 243 kts 45°
2026-05-05 08:05 37.41777 15.25471 3557 ft 243 kts 46°
2026-05-05 08:05 37.42899 15.27055 3436 ft 242 kts 48°
2026-05-05 08:05 37.43989 15.28652 3313 ft 242 kts 49°
2026-05-05 08:06 37.45085 15.30293 3193 ft 242 kts 49°
2026-05-05 08:06 37.46144 15.31894 3022 ft 238 kts 49°
2026-05-05 08:06 37.47189 15.33485 2807 ft 232 kts 49°
2026-05-05 08:06 37.48207 15.35033 2609 ft 227 kts 49°
2026-05-05 08:07 37.49200 15.36547 2418 ft 221 kts 50°
2026-05-05 08:07 37.50305 15.37832 2210 ft 214 kts 22°
2026-05-05 08:07 37.51711 15.38116 2012 ft 206 kts 348°
2026-05-05 08:07 37.52953 15.37340 1788 ft 197 kts 313°
2026-05-05 08:08 37.53676 15.35922 1615 ft 189 kts 288°
2026-05-05 08:08 37.53941 15.34370 1572 ft 179 kts 269°
2026-05-05 08:08 37.53690 15.32869 1524 ft 177 kts 241°
2026-05-05 08:08 37.52897 15.31685 1515 ft 178 kts 217°
2026-05-05 08:09 37.51834 15.30850 1541 ft 181 kts 211°
2026-05-05 08:09 37.50737 15.30081 1547 ft 181 kts 209°
2026-05-05 08:09 37.49661 15.29245 1527 ft 180 kts 221°
2026-05-05 08:09 37.48799 15.28104 1532 ft 179 kts 237°
2026-05-05 08:10 37.48360 15.26671 1535 ft 177 kts 268°
2026-05-05 08:10 37.48296 15.25129 1442 ft 179 kts 266°
2026-05-05 08:10 37.48223 15.23570 1414 ft 178 kts 266°
2026-05-05 08:10 37.48111 15.21992 1398 ft 179 kts 262°
2026-05-05 08:11 37.47926 15.20452 1335 ft 179 kts 261°
2026-05-05 08:11 37.47726 15.18978 1363 ft 158 kts 260°
2026-05-05 08:11 37.47588 15.17683 1253 ft 141 kts 263°
2026-05-05 08:11 37.47469 15.16469 1079 ft 138 kts 263°
2026-05-05 08:12 37.47366 15.15264 984 ft 138 kts 263°
2026-05-05 08:12 37.47262 15.14070 821 ft 138 kts 263°
2026-05-05 08:12 37.47196 15.12869 673 ft 138 kts 265°
2026-05-05 08:12 37.47102 15.11670 506 ft 138 kts 264°
2026-05-05 08:13 37.47004 15.10461 320 ft 137 kts 263°
2026-05-05 08:13 37.46901 15.09276 181 ft 137 kts 263°
2026-05-05 08:13 37.46797 15.08087 66 ft 137 kts 262°
2026-05-05 08:13 37.46701 15.07027 33 ft 89 kts 264°
2026-05-05 08:14 37.46676 15.06588 35 ft 29 kts 266°
2026-05-05 08:14 37.46657 15.06344 38 ft 25 kts 264°
2026-05-05 08:14 37.46745 15.06294 38 ft 16 kts 21°
2026-05-05 08:14 37.46796 15.06307 38 ft 4 kts 355°
2026-05-05 08:15 37.46814 15.06278 39 ft 4 kts 272°
2026-05-05 08:15 37.46811 15.06237 40 ft 5 kts 262°
2026-05-05 08:15 37.46824 15.06201 40 ft 5 kts 338°
2026-05-05 08:15 37.46863 15.06193 40 ft 5 kts 357°
2026-05-05 08:16 37.46885 15.06191 41 ft 0 kts 354°